Location: Gleizolles
(44.4833°N, 6.7667°E)
Time: 14:26:20
(UTC+00:00)

Vanguard 1 - Pass Details

Date: 02 July 2024
Orbit: 650 x 3826 km, 34.3° (Epoch: 15 July)

Event Time Altitude Azimuth Distance (km) Brightness Sun altitude
Rises 13:47:55 0° 268° (W) 4,367 13.8 55.7°
Reaches altitude 10° 13:53:01 10° 244° (WSW) 2,808 13.2 54.9°
Maximum altitude 13:55:52 13° 217° (SW) 2,301 12.7 54.5°
Drops below altitude 10° 13:58:17 10° 189° (S) 2,317 12.4 54.1°
Sets 14:01:42 0° 160° (SSE) 3,027 12.6 53.5°
